Temp
-13 -14 -14 -14 -14 -14 -14 -14 -14 -14 -14 -15 -14 -15 -15 -15 -15 -16 -17 -17 -18 -18 -19 -19 -19 -19 -20 -20 -20 -20 -19 -20 -20 -20 -21 -21 -21 -21 -20 -20 -20 -20 -20
-14 -14 -14 -14 -14 -14 -14 -14 -14 -14 -15 -14 -15 -15 -15 -15 -16 -16 -17 -18 -18 -19 -19 -19 -19 -20 -20 -20 -20 -20 -20 -20 -20 -21 -21 -21 -21 -21 -21 -21 -21 -21 -21
-14 -14 -14 -14 -14 -14 -14 -14 -14 -15 -15 -15 -15 -15 -15 -16 -16 -17 -18 -18 -19 -19 -19 -20 -20 -20 -20 -20 -20 -20 -20 -21 -21 -21 -21 -21 -21 -21 -21 -21 -21 -21 -21
-14 -14 -14 -14 -14 -14 -15 -15 -15 -15 -15 -15 -15 -16 -16 -16 -17 -18 -19 -19 -20 -20 -20 -20 -20 -21 -21 -20 -20 -21 -21 -21 -21 -21 -21 -21 -21 -21 -21 -21 -21 -21 -21
-14 -14 -14 -14 -14 -15 -15 -15 -15 -15 -16 -17 -17 -16 -17 -17 -18 -19 -19 -20 -20 -20 -20 -20 -21 -21 -21 -21 -21 -22 -22 -22 -22 -22 -22 -21 -21 -21 -21 -21 -21 -21 -21
-14 -14 -14 -15 -15 -15 -15 -15 -15 -16 -16 -16 -16 -17 -17 -18 -19 -20 -20 -21 -21 -21 -21 -21 -21 -21 -22 -22 -22 -22 -22 -22 -22 -22 -22 -22 -22 -21 -21 -21 -21 -21 -22
-14 -14 -14 -14 -15 -15 -15 -15 -15 -16 -16 -16 -16 -18 -18 -19 -20 -20 -21 -21 -21 -21 -21 -21 -21 -22 -22 -22 -22 -22 -22 -22 -22 -22 -22 -22 -22 -21 -21 -21 -21 -21 -21
-14 -14 -14 -14 -15 -15 -15 -16 -16 -16 -16 -18 -18 -18 -19 -20 -20 -21 -21 -21 -22 -21 -21 -22 -22 -22 -22 -22 -22 -22 -22 -22 -22 -22 -22 -21 -21 -21 -21 -21 -21 -21 -22
-15 -15 -15 -15 -15 -15 -16 -16 -16 -16 -17 -18 -18 -19 -20 -20 -21 -21 -22 -22 -22 -22 -22 -22 -22 -22 -23 -23 -23 -23 -23 -22 -22 -22 -22 -22 -21 -21 -21 -21 -21 -21 -21
-15 -15 -15 -15 -15 -16 -16 -16 -16 -17 -18 -19 -20 -20 -20 -21 -22 -22 -22 -22 -22 -22 -22 -22 -22 -23 -23 -23 -23 -23 -23 -23 -22 -22 -22 -22 -22 -22 -21 -21 -21 -21 -22
-15 -15 -15 -15 -15 -15 -16 -17 -17 -18 -19 -20 -20 -21 -22 -21 -22 -22 -22 -22 -22 -22 -22 -22 -23 -23 -23 -23 -23 -23 -23 -23 -22 -22 -23 -22 -22 -23 -22 -23 -23 -23 -23
-15 -15 -15 -15 -16 -17 -17 -18 -19 -20 -21 -21 -20 -20 -21 -21 -22 -22 -22 -23 -22 -23 -23 -23 -23 -24 -23 -24 -23 -23 -23 -22 -22 -23 -23 -23 -23 -23 -24 -24 -24 -25 -25
-15 -15 -16 -16 -17 -17 -18 -19 -20 -21 -20 -21 -20 -21 -21 -21 -22 -22 -23 -22 -23 -23 -23 -23 -24 -24 -24 -24 -23 -23 -23 -22 -22 -23 -23 -23 -23 -23 -24 -24 -25 -25 -26
-15 -16 -16 -16 -17 -18 -19 -20 -21 -21 -20 -21 -21 -21 -21 -22 -23 -23 -23 -23 -23 -24 -24 -24 -24 -24 -24 -24 -23 -23 -23 -23 -23 -23 -23 -23 -23 -24 -25 -25 -25 -26 -27
-16 -16 -17 -17 -18 -18 -20 -21 -21 -21 -22 -22 -23 -23 -24 -24 -24 -24 -24 -24 -24 -24 -24 -24 -25 -25 -24 -24 -24 -23 -23 -23 -23 -23 -23 -24 -24 -25 -25 -26 -26 -27 -28
-17 -18 -18 -19 -19 -20 -21 -21 -22 -22 -23 -24 -23 -24 -24 -24 -25 -25 -24 -24 -24 -24 -25 -25 -25 -25 -24 -24 -24 -24 -23 -23 -23 -24 -24 -24 -25 -25 -26 -27 -27 -28 -29
-18 -20 -20 -21 -21 -22 -22 -22 -22 -23 -24 -25 -24 -25 -25 -26 -25 -25 -24 -24 -24 -25 -25 -25 -25 -25 -24 -24 -24 -24 -24 -23 -24 -24 -25 -25 -26 -26 -27 -28 -28 -29 -30
-20 -21 -21 -21 -21 -22 -22 -22 -22 -24 -25 -25 -25 -26 -26 -25 -25 -25 -25 -25 -25 -25 -25 -25 -25 -24 -24 -24 -24 -24 -24 -24 -24 -25 -25 -26 -26 -27 -28 -29 -29 -30 -31
-21 -21 -22 -22 -22 -22 -22 -23 -25 -26 -26 -25 -25 -25 -25 -25 -25 -25 -25 -25 -25 -25 -25 -25 -25 -24 -24 -24 -24 -24 -24 -24 -25 -25 -26 -27 -27 -28 -29 -29 -30 -31 -32
-22 -22 -22 -22 -22 -22 -24 -25 -25 -25 -25 -25 -25 -26 -25 -26 -26 -26 -25 -25 -25 -25 -25 -25 -24 -24 -24 -24 -24 -24 -24 -25 -25 -26 -27 -27 -28 -29 -29 -30 -32 -33 -33
-22 -22 -23 -23 -23 -25 -25 -25 -25 -25 -25 -25 -25 -25 -25 -25 -26 -25 -25 -26 -25 -25 -25 -24 -24 -24 -24 -24 -24 -24 -25 -25 -26 -26 -27 -28 -29 -30 -31 -32 -33 -34 -35
-22 -23 -23 -24 -26 -25 -26 -25 -25 -25 -25 -25 -25 -26 -26 -25 -26 -26 -26 -26 -25 -25 -25 -25 -24 -24 -24 -24 -24 -25 -25 -26 -26 -27 -28 -29 -30 -31 -32 -33 -34 -35 -36
-23 -23 -25 -26 -26 -26 -26 -26 -26 -26 -25 -25 -26 -25 -25 -25 -26 -26 -25 -25 -25 -25 -25 -24 -24 -24 -24 -24 -25 -25 -25 -26 -27 -28 -28 -29 -30 -31 -32 -34 -35 -36 -36
-24 -26 -26 -26 -26 -26 -26 -26 -25 -25 -25 -25 -25 -25 -25 -25 -25 -25 -25 -25 -25 -25 -25 -24 -24 -24 -24 -25 -25 -25 -26 -27 -28 -28 -29 -30 -31 -32 -33 -34 -36 -37 -37
-26 -26 -26 -26 -26 -26 -26 -25 -25 -25 -25 -25 -25 -25 -25 -25 -25 -25 -25 -25 -25 -25 -24 -24 -24 -24 -25 -25 -25 -26 -27 -28 -28 -28 -29 -30 -32 -33 -34 -35 -36 -37 -37
-26 -26 -26 -26 -26 -26 -26 -26 -26 -25 -25 -25 -25 -25 -25 -25 -25 -25 -25 -25 -25 -25 -24 -24 -24 -25 -25 -25 -26 -26 -27 -28 -28 -29 -30 -31 -33 -34 -35 -36 -37 -37 -38
Height
5787 5786 5785 5784 5781 5779 5776 5773 5769 5765 5761 5758 5754 5748 5743 5738 5732 5725 5719 5712 5706 5700 5693 5686 5679 5672 5667 5663 5659 5655 5651 5647 5643 5639 5637 5635 5633 5631 5629 5627 5626 5625 5624
5781 5781 5779 5777 5775 5772 5769 5766 5763 5758 5753 5750 5745 5740 5734 5728 5721 5715 5709 5703 5696 5690 5684 5677 5670 5663 5658 5653 5648 5644 5640 5636 5632 5629 5626 5623 5620 5619 5618 5616 5615 5614 5613
5775 5774 5772 5769 5767 5765 5762 5759 5754 5750 5745 5740 5735 5730 5724 5718 5711 5705 5699 5693 5687 5680 5674 5668 5661 5654 5649 5643 5638 5633 5629 5625 5622 5619 5616 5612 5610 5608 5606 5604 5603 5602 5601
5768 5767 5764 5762 5759 5756 5753 5749 5745 5740 5735 5729 5724 5719 5714 5707 5700 5694 5688 5682 5676 5670 5664 5658 5651 5644 5638 5633 5628 5623 5619 5616 5612 5609 5605 5601 5598 5596 5596 5595 5592 5591 5589
5762 5760 5757 5755 5752 5748 5744 5740 5735 5731 5725 5720 5714 5708 5701 5695 5688 5683 5677 5672 5666 5660 5655 5648 5641 5634 5628 5623 5618 5613 5610 5606 5603 5598 5595 5591 5588 5585 5583 5582 5581 5579 5575
5754 5753 5750 5747 5744 5740 5735 5730 5725 5720 5715 5708 5701 5695 5689 5683 5678 5672 5667 5662 5657 5650 5645 5638 5631 5625 5619 5613 5608 5604 5600 5596 5592 5588 5584 5581 5577 5575 5572 5570 5567 5566 5564
5747 5744 5742 5738 5734 5730 5725 5720 5714 5708 5703 5696 5688 5682 5677 5671 5666 5661 5656 5650 5646 5640 5634 5627 5621 5614 5609 5603 5598 5594 5589 5585 5582 5578 5574 5571 5568 5565 5562 5558 5553 5551 5548
5738 5735 5732 5728 5723 5719 5713 5707 5702 5697 5690 5682 5676 5670 5663 5657 5653 5648 5645 5639 5634 5629 5624 5617 5611 5604 5599 5593 5588 5584 5579 5574 5570 5566 5562 5558 5554 5551 5546 5543 5539 5535 5530
5728 5724 5720 5716 5712 5706 5701 5695 5689 5683 5677 5670 5663 5657 5650 5644 5640 5636 5633 5628 5622 5618 5613 5607 5601 5594 5589 5584 5578 5573 5568 5563 5559 5555 5550 5546 5541 5536 5531 5528 5522 5518 5514
5716 5713 5709 5705 5699 5693 5688 5681 5674 5667 5661 5654 5649 5644 5637 5632 5627 5624 5622 5616 5610 5605 5601 5596 5590 5583 5579 5574 5569 5563 5558 5552 5547 5542 5537 5532 5526 5520 5515 5509 5504 5499 5493
5707 5703 5698 5693 5687 5681 5675 5667 5661 5654 5648 5643 5637 5629 5624 5621 5616 5611 5609 5604 5598 5593 5587 5584 5578 5572 5567 5561 5556 5552 5547 5541 5536 5531 5525 5519 5512 5505 5498 5491 5485 5478 5472
5698 5693 5687 5682 5676 5668 5660 5653 5647 5640 5636 5631 5625 5619 5614 5610 5604 5599 5594 5589 5585 5580 5575 5571 5565 5560 5555 5549 5543 5538 5533 5528 5523 5517 5511 5504 5497 5490 5483 5475 5467 5458 5450
5686 5680 5674 5667 5661 5654 5646 5638 5632 5627 5626 5619 5615 5611 5605 5599 5595 5588 5582 5576 5572 5567 5562 5557 5551 5547 5542 5536 5530 5525 5519 5513 5508 5502 5495 5488 5481 5473 5466 5457 5448 5438 5429
5674 5667 5660 5654 5645 5638 5631 5625 5619 5614 5608 5603 5599 5596 5589 5585 5580 5573 5569 5564 5559 5553 5549 5544 5538 5534 5529 5523 5517 5511 5506 5500 5494 5487 5479 5472 5464 5455 5447 5438 5429 5419 5411
5657 5650 5644 5637 5629 5622 5616 5610 5603 5597 5592 5585 5580 5574 5570 5568 5563 5558 5552 5549 5545 5540 5535 5531 5526 5521 5516 5510 5505 5498 5493 5486 5480 5472 5464 5455 5446 5437 5427 5417 5407 5398 5388
5642 5635 5628 5621 5614 5606 5599 5593 5589 5579 5570 5563 5558 5555 5552 5547 5541 5539 5536 5533 5529 5526 5523 5518 5514 5508 5503 5498 5491 5485 5479 5472 5464 5455 5446 5436 5428 5418 5408 5396 5385 5375 5364
5628 5620 5613 5606 5597 5589 5581 5572 5565 5558 5555 5548 5541 5536 5533 5529 5526 5522 5520 5518 5515 5513 5510 5506 5502 5495 5490 5485 5478 5472 5466 5457 5448 5438 5428 5418 5408 5397 5386 5375 5363 5352 5341
5611 5603 5597 5589 5580 5570 5562 5552 5543 5536 5531 5527 5524 5522 5519 5515 5512 5509 5507 5505 5503 5501 5497 5493 5488 5483 5477 5471 5464 5458 5450 5441 5430 5420 5410 5400 5389 5378 5366 5353 5340 5328 5316
5594 5586 5576 5567 5557 5546 5537 5527 5520 5517 5515 5513 5510 5508 5506 5503 5499 5497 5496 5494 5491 5488 5485 5481 5476 5470 5464 5458 5451 5443 5435 5425 5414 5404 5393 5382 5370 5358 5345 5330 5318 5304 5291
5577 5567 5557 5545 5534 5523 5514 5509 5506 5504 5502 5499 5497 5495 5493 5491 5490 5488 5486 5484 5479 5475 5472 5469 5464 5458 5451 5444 5437 5428 5419 5409 5398 5387 5376 5364 5351 5337 5323 5309 5296 5283 5270
5560 5549 5536 5524 5512 5505 5502 5498 5495 5492 5490 5487 5486 5484 5481 5480 5479 5477 5475 5472 5469 5465 5461 5456 5450 5444 5438 5431 5422 5413 5403 5393 5382 5371 5359 5346 5332 5317 5302 5288 5274 5260 5249
5540 5528 5517 5505 5499 5494 5490 5487 5484 5482 5479 5478 5476 5474 5473 5472 5470 5467 5465 5461 5458 5454 5448 5443 5438 5431 5424 5416 5407 5398 5389 5378 5367 5354 5341 5328 5314 5298 5283 5269 5255 5243 5232
5522 5511 5499 5494 5489 5484 5481 5478 5475 5473 5471 5470 5468 5467 5465 5462 5460 5457 5455 5451 5447 5442 5437 5432 5427 5419 5412 5403 5394 5384 5373 5361 5350 5338 5325 5311 5295 5279 5265 5251 5238 5227 5216
5506 5494 5490 5485 5480 5476 5472 5470 5468 5466 5464 5462 5460 5459 5456 5454 5451 5448 5444 5440 5436 5431 5426 5421 5414 5407 5399 5389 5379 5368 5357 5346 5333 5320 5306 5291 5276 5260 5247 5234 5222 5211 5203
5489 5485 5480 5476 5472 5468 5465 5462 5460 5458 5456 5454 5452 5450 5447 5445 5442 5438 5434 5430 5425 5421 5415 5409 5402 5394 5384 5375 5365 5354 5342 5329 5316 5302 5288 5272 5257 5242 5229 5217 5207 5198 5190
5480 5475 5471 5468 5464 5461 5458 5455 5453 5450 5448 5446 5443 5441 5438 5435 5432 5429 5425 5420 5415 5410 5404 5397 5389 5381 5371 5360 5349 5337 5325 5312 5298 5284 5269 5254 5239 5226 5214 5203 5194 5186 5179
Wind_Speed
22 23 23 23 24 26 28 30 32 32 33 36 38 40 44 48 51 53 53 51 50 49 49 48 48 47 43 39 39 41 41 42 39 37 35 35 36 36 37 37 37 39 41
23 22 23 24 26 28 31 33 35 36 38 37 40 44 46 51 54 56 54 52 51 50 49 47 47 44 42 41 43 43 42 39 36 35 36 37 37 36 35 35 36 37 38
22 23 25 26 29 31 33 35 38 39 40 42 44 47 50 55 57 58 55 52 50 50 49 47 46 45 44 44 43 42 40 38 37 37 36 37 37 36 34 33 34 35 38
24 26 28 29 31 33 36 38 39 41 43 46 48 51 55 58 59 58 55 51 48 48 47 46 47 46 45 45 42 39 38 38 37 37 38 38 36 34 32 32 35 37 41
28 29 30 32 34 36 38 41 42 43 44 44 52 55 57 59 58 55 53 49 47 46 47 48 48 46 45 44 40 38 38 37 37 38 37 36 35 35 36 38 39 41 45
29 31 33 34 36 39 41 43 45 46 48 51 56 59 60 60 59 53 50 46 46 46 48 49 48 46 46 44 41 39 37 37 38 38 38 37 38 38 39 41 43 45 45
31 33 35 36 39 41 43 45 47 49 51 56 59 61 61 60 57 54 45 45 46 48 49 51 49 46 45 43 41 39 38 38 39 40 41 39 38 39 41 43 44 44 45
33 35 39 41 42 43 46 48 51 54 56 58 60 62 62 60 55 48 42 44 49 50 49 51 50 46 44 42 39 39 39 40 41 42 41 41 42 43 44 44 44 45 47
35 38 40 42 43 47 51 53 56 59 60 62 62 61 63 56 48 38 41 47 50 48 48 54 53 46 43 42 39 39 41 42 43 44 43 44 45 46 45 46 48 48 49
37 40 42 45 48 52 56 58 61 63 63 61 60 57 57 45 41 41 48 48 51 46 50 56 52 46 44 45 41 40 42 43 45 45 46 48 49 49 49 50 52 53 55
39 43 46 50 53 57 61 64 65 66 65 60 54 51 43 42 38 42 49 48 50 50 52 58 51 48 45 46 43 42 42 43 46 46 48 50 51 52 53 56 58 59 61
43 47 52 56 59 62 65 67 64 58 56 42 54 60 46 47 50 57 48 50 54 51 57 60 52 48 47 50 47 46 44 46 48 49 50 53 54 55 56 59 61 64 66
50 54 58 62 66 68 65 63 58 59 46 47 48 49 39 48 63 61 51 60 58 57 60 56 51 50 51 54 49 47 47 50 51 53 54 56 58 58 59 62 64 66 68
57 59 62 66 68 70 68 59 58 52 51 56 66 65 69 68 56 57 59 56 57 61 59 51 50 53 53 53 49 49 50 52 54 56 58 59 61 62 63 65 67 69 70
60 63 67 70 71 72 69 62 61 63 65 71 73 69 63 62 61 64 61 59 60 57 51 50 52 53 52 48 49 49 53 55 57 58 60 62 63 65 66 69 71 72 73
63 65 67 69 71 72 69 65 63 64 62 64 64 63 61 62 63 59 58 55 51 46 46 51 52 54 50 48 49 51 54 57 59 60 62 64 66 68 70 72 74 75 76
64 62 63 65 67 67 68 70 72 65 61 64 63 61 56 50 46 47 50 48 40 40 43 46 51 50 48 49 50 53 56 58 60 62 64 66 69 71 73 75 77 78 79
58 59 65 69 72 73 72 75 73 58 51 53 53 50 51 49 44 43 39 36 40 44 47 49 51 48 48 49 52 54 57 59 62 64 66 69 71 73 75 78 80 81 81
58 64 68 71 74 77 77 68 48 41 42 42 42 42 43 38 37 35 35 39 44 48 49 47 45 47 48 51 53 56 59 61 63 66 68 71 73 76 78 81 83 83 81
66 71 74 78 84 75 57 42 38 38 35 36 35 35 33 33 32 34 37 42 42 41 41 42 44 46 48 51 55 58 60 62 65 67 70 73 75 78 81 83 83 81 76
71 75 79 89 69 46 39 41 40 38 36 36 33 32 33 31 33 35 37 41 39 39 40 41 44 47 50 53 57 60 62 64 66 69 72 74 77 81 84 84 81 77 71
77 79 87 63 45 41 39 37 35 33 30 28 25 26 28 29 31 35 40 40 39 39 40 43 45 49 52 55 59 62 63 65 67 71 74 76 79 82 82 80 76 71 64
78 86 58 44 39 35 34 32 30 29 27 26 27 28 29 30 33 37 37 37 37 39 41 43 46 50 54 57 60 62 64 67 70 73 76 78 80 81 80 75 70 64 58
81 49 41 39 36 33 31 30 29 29 29 28 28 30 30 31 33 34 34 36 38 39 42 45 48 52 56 59 61 64 66 69 72 76 79 80 81 79 75 69 64 58 53
41 37 35 33 30 27 27 26 26 26 26 27 28 29 29 31 33 33 35 37 38 41 44 47 51 54 58 60 62 65 68 71 76 79 80 80 79 75 70 63 58 52 48
35 34 32 33 30 27 27 27 27 28 27 27 28 28 29 31 32 33 34 36 39 43 46 50 53 56 58 61 64 68 71 76 79 80 79 78 75 70 63 57 51 46 41
Wind_Direction
281 278 280 283 288 294 298 300 302 302 301 303 306 309 310 312 314 314 316 317 317 317 318 318 314 313 310 305 302 302 301 300 299 297 294 292 288 286 284 281 279 276 274
276 277 281 289 295 297 298 297 299 301 302 303 305 306 310 312 312 314 316 316 317 317 318 316 313 312 307 305 304 304 303 301 300 300 299 297 295 293 290 286 283 278 275
275 280 284 290 294 296 297 297 299 300 299 301 304 309 310 310 312 314 315 315 316 316 318 316 313 311 308 306 306 306 304 302 304 305 303 300 297 294 289 287 284 283 281
281 285 288 290 294 296 294 296 299 300 300 302 305 305 307 309 310 312 313 313 314 315 317 315 312 311 310 307 307 306 305 305 307 308 305 303 299 295 292 290 289 287 283
277 282 285 289 291 291 293 297 299 298 299 299 298 302 304 305 308 311 311 311 313 315 316 313 312 310 311 309 307 307 307 307 308 308 305 302 298 296 294 292 291 288 286
274 280 283 289 292 292 296 298 298 298 297 298 299 300 303 306 308 311 310 310 313 316 314 313 313 308 310 310 307 306 305 306 309 307 303 300 297 295 294 292 290 288 286
287 293 296 296 294 297 297 296 296 296 297 296 298 300 303 306 310 310 307 310 311 316 313 313 314 309 310 310 307 306 304 306 307 305 302 298 296 294 294 294 293 290 286
292 293 293 294 297 297 295 295 295 295 294 295 296 299 303 306 306 307 307 312 312 313 310 314 313 308 311 311 308 304 304 306 306 306 303 302 303 301 299 296 293 292 292
288 289 290 294 296 294 294 292 291 292 293 294 299 304 306 305 306 303 301 311 310 309 309 311 313 309 310 314 307 303 306 306 306 305 302 304 304 302 300 298 298 298 297
286 289 293 293 290 289 289 289 290 291 295 299 304 307 302 304 300 292 297 308 306 305 307 309 312 309 308 313 306 303 305 306 306 305 304 305 305 303 302 302 302 300 298
288 289 289 288 288 289 289 291 293 296 299 305 311 304 300 302 296 304 306 309 302 305 304 308 310 310 310 313 306 303 306 306 304 303 304 305 305 305 304 302 301 301 300
295 296 295 292 290 290 291 292 296 300 301 305 303 296 297 287 300 299 305 304 302 303 301 305 305 308 310 314 306 306 307 305 303 303 305 307 306 304 303 303 302 301 301
295 293 292 291 291 291 295 299 305 310 291 302 295 287 283 277 289 297 300 302 298 300 302 303 303 304 307 310 305 305 306 305 304 306 308 308 307 306 305 304 303 303 303
285 284 285 287 291 295 298 304 306 307 276 292 292 280 278 285 289 291 291 291 293 296 299 298 301 304 305 305 303 305 305 304 305 307 308 308 307 307 306 305 305 304 303
282 286 288 290 293 295 299 303 301 294 288 282 284 288 286 282 280 282 285 283 289 293 294 297 299 303 304 302 302 304 304 304 305 307 308 308 308 307 308 307 306 305 305
289 290 292 294 297 298 299 300 295 291 291 291 290 287 284 281 283 287 289 288 289 290 290 291 299 303 300 300 302 305 304 305 307 309 310 309 309 309 309 308 307 307 306
292 297 297 297 296 300 303 301 299 294 290 285 288 286 288 291 289 287 286 289 287 289 291 295 300 297 297 300 303 304 305 306 309 310 310 311 311 311 310 309 308 308 308
297 298 297 299 297 298 301 299 297 292 280 280 284 286 286 289 291 288 286 289 283 284 289 292 295 295 299 302 304 305 307 309 310 311 311 312 312 312 311 310 310 310 310
299 303 306 305 304 304 302 299 289 284 283 287 288 286 288 290 286 283 280 285 286 288 290 292 292 297 301 304 304 307 309 311 311 312 313 313 313 313 313 312 312 312 312
303 305 305 309 311 306 301 298 294 291 290 287 285 285 278 272 277 284 280 288 292 292 292 292 296 301 303 305 307 309 311 312 312 313 313 314 314 314 314 313 313 313 314
304 307 310 314 308 302 298 295 296 292 288 286 283 279 277 277 273 281 290 297 294 292 293 298 302 303 305 308 309 311 313 313 313 314 315 316 316 315 314 314 315 315 315
308 312 312 306 300 298 299 296 293 294 294 287 282 276 278 275 281 287 288 290 293 295 301 302 304 306 309 310 311 312 312 313 315 317 317 317 316 315 315 315 316 315 314
310 311 306 300 296 296 299 299 294 289 287 283 272 275 278 286 289 289 290 293 296 300 302 304 306 308 310 311 311 312 314 316 317 317 318 318 317 316 315 316 316 315 314
310 305 300 297 295 298 298 296 293 289 286 275 277 281 287 290 290 291 295 297 300 303 305 306 308 310 311 312 314 315 316 317 318 319 319 319 318 316 316 317 316 316 315
304 299 297 298 298 304 305 301 296 290 285 284 284 287 289 290 292 296 298 302 305 305 306 308 310 312 314 314 315 316 318 319 320 321 321 320 318 317 318 318 316 316 314
296 294 296 296 298 301 304 304 300 296 292 289 288 290 292 294 297 300 304 304 305 307 309 310 312 314 316 316 317 319 320 321 322 322 321 319 319 319 318 317 317 316 315